Nashua, NH

2:07 AM EDT on October 23, 2019 (GMT -0400)
Boire

Weather History for KASH - August, 2019

Change the Weather History Date:

Tuesday, August 27, 2019

  Actual Average Record
Temperature  
Mean Temperature 63 °F -  
Max Temperature 78 °F 80 °F 105 °F (1948)
Min Temperature 48 °F 56 °F 35 °F (1954)
Degree Days  
Heating Degree Days 2    
Growing Degree Days 13 (Base 50)    
Moisture  
Dew Point 52 °F    
Average Humidity 72    
Maximum Humidity 100    
Minimum Humidity 35    
Precipitation  
Precipitation 0.00 in - - ()
Sea Level Pressure  
Sea Level Pressure 30.09 in    
Wind  
Wind Speed 2 mph ()    
Max Wind Speed 7 mph    
Max Gust Speed -    
Visibility 10.0 miles    
Events      
Averages and records for this station are not official NWS values.
T = Trace of Precipitation, MM = Missing Value Source: Averaged Metar Reports

Daily Weather History Graph

Daily Weather History Graph

Search for Another Location

Airport or City:

Astronomy

Aug. 27, 2019 Rise Set
Actual Time 6:05 AM EDT 7:29 PM EDT
Civil Twilight 5:35 AM EDT 7:58 PM EDT
Nautical Twilight 5:00 AM EDT 8:34 PM EDT
Astronomical Twilight 4:22 AM EDT 9:11 PM EDT
Moon 2:21 AM EDT (8/27) 5:52 PM EDT (8/27)
Length of Visible Light 14h 23m
Length of Day
13h 24m
Waning Crescent, 11% of the Moon is Illuminated
Aug 27
Waning Crescent
Aug 30
New
Sep 5
First Quarter
Sep 14
Full
Sep 21
Last Quarter

Hourly Weather History & Observations

Time (EDT) Temp. Dew Point Humidity Pressure Visibility Wind Dir Wind Speed Gust Speed Precip Events Conditions
12:56 AM 52.0 °F 52.0 °F 100% 30.18 in 10.0 mi Calm Calm - N/A   Clear
1:56 AM 51.1 °F 51.1 °F 100% 30.16 in 10.0 mi WNW 3.5 mph - N/A   Clear
2:56 AM 50.0 °F 50.0 °F 100% 30.16 in 10.0 mi WNW 4.6 mph - N/A   Clear
3:56 AM 48.9 °F 48.9 °F 100% 30.15 in 10.0 mi WNW 3.5 mph - N/A   Clear
4:56 AM 48.0 °F 48.0 °F 100% 30.15 in 10.0 mi WNW 3.5 mph - N/A   Clear
5:56 AM 48.0 °F 48.0 °F 100% 30.14 in 10.0 mi Calm Calm - N/A   Clear
6:56 AM 48.0 °F 48.0 °F 100% 30.14 in 10.0 mi NW 3.5 mph - N/A   Clear
7:56 AM 53.1 °F 50.0 °F 89% 30.14 in 10.0 mi Calm Calm - N/A   Clear
8:56 AM 59.0 °F 52.0 °F 78% 30.14 in 10.0 mi Calm Calm - N/A   Clear
9:56 AM 66.9 °F 54.0 °F 63% 30.13 in 10.0 mi Calm Calm - N/A   Clear
10:56 AM 72.0 °F 53.1 °F 51% 30.12 in 10.0 mi Calm Calm - N/A   Clear
11:56 AM 73.9 °F 51.1 °F 45% 30.10 in 10.0 mi Variable 5.8 mph - N/A   Clear
12:56 PM 73.0 °F 51.1 °F 46% 30.09 in 10.0 mi WSW 5.8 mph - N/A   Clear
1:56 PM 75.9 °F 46.0 °F 35% 30.06 in 10.0 mi South 6.9 mph - N/A   Clear
2:56 PM 78.1 °F 50.0 °F 37% 30.04 in 10.0 mi Variable 6.9 mph - N/A   Clear
3:56 PM 75.9 °F 52.0 °F 43% 30.03 in 10.0 mi Variable 4.6 mph - N/A   Clear
4:56 PM 78.1 °F 53.1 °F 42% 30.02 in 10.0 mi Variable 4.6 mph - N/A   Clear
5:56 PM 73.9 °F 53.1 °F 48% 30.03 in 10.0 mi Calm Calm - N/A   Clear
6:56 PM 72.0 °F 54.0 °F 53% 30.03 in 10.0 mi Calm Calm - N/A   Clear
7:56 PM 66.9 °F 55.9 °F 68% 30.03 in 10.0 mi Calm Calm - N/A   Clear
8:56 PM 64.0 °F 57.9 °F 80% 30.04 in 10.0 mi Calm Calm - N/A   Clear
9:56 PM 64.0 °F 57.9 °F 80% 30.05 in 10.0 mi Calm Calm - N/A   Clear
10:56 PM 66.0 °F 59.0 °F 78% 30.04 in 10.0 mi Calm Calm - N/A   Clear
11:56 PM 64.9 °F 60.1 °F 84% 30.04 in 10.0 mi Calm Calm - N/A   Overcast